This is the latest recevied weather packets stored in our database for station/object WD9EKA. If no packets are shown the sender has not sent any weather packets the latest 10 day(s).
| Time | Temp. | Humidity | Pressure | Rain* | Wind** | Luminosity | Snow |
|---|---|---|---|---|---|---|---|
| 1777954246 | 21.11° C | 57% | 998.5 hPa | 0 mm | - | - | - |
| 1777953926 | 21.11° C | 57% | 998.7 hPa | 0 mm | - | - | - |
| 1777953607 | 21.11° C | 57% | 998.8 hPa | 0 mm | - | - | - |
| 1777953287 | 21.11° C | 56% | 999 hPa | 0 mm | - | - | - |
| 1777952967 | 21.11° C | 58% | 998.9 hPa | 0 mm | - | - | - |
| 1777952646 | 21.11° C | 57% | 999 hPa | 0 mm | - | - | - |
| 1777952327 | 21.11° C | 57% | 999.2 hPa | 0 mm | - | - | - |
| 1777952006 | 21.11° C | 57% | 999.2 hPa | 0 mm | - | - | - |
| 1777951366 | 21.11° C | 57% | 999.1 hPa | 0 mm | - | - | - |
| 1777951054 | 20.56° C | 58% | 998.9 hPa | 0 mm | - | - | - |
| 1777950694 | 20.56° C | 57% | 999 hPa | 0 mm | - | - | - |
| 1777950334 | 20.56° C | 57% | 999.1 hPa | 0 mm | - | - | - |
| 1777950034 | 20.56° C | 57% | 999.1 hPa | 0 mm | - | - | - |
| 1777949674 | 20.56° C | 60% | 999.3 hPa | 0 mm | - | - | - |
| 1777949314 | 20.56° C | 58% | 999.3 hPa | 0 mm | - | - | - |
| 1777948954 | 20.56° C | 58% | 999.2 hPa | 0 mm | - | - | - |
| 1777948594 | 20.56° C | 59% | 999.3 hPa | 0 mm | - | - | - |
| 1777948234 | 20.56° C | 59% | 999.3 hPa | 0 mm | - | - | - |
| 1777947874 | 20.56° C | 59% | 999.2 hPa | 0 mm | - | - | - |
| 1777947514 | 20.56° C | 57% | 999.3 hPa | 0 mm | - | - | - |
| 1777947154 | 20.56° C | 57% | 999.1 hPa | 0 mm | - | - | - |
| 1777946794 | 20.56° C | 57% | 999.1 hPa | 0 mm | - | - | - |
| 1777946434 | 20.56° C | 56% | 998.8 hPa | 0 mm | - | - | - |
| 1777946074 | 20.56° C | 56% | 998.9 hPa | 0 mm | - | - | - |
| 1777945714 | 20° C | 57% | 998.6 hPa | 0 mm | - | - | - |
* Rain latest hour (hover to see other rain measurements)
** Current wind speed in m/s (hover to see current wind gust speed)